Weather History for St. George, UT

Change the Weather History Date:

Monday, February 4, 2013

  Actual Average Record
Temperature  
Mean Temperature 48 °F -  
Max Temperature 62 °F 58 °F 71 °F (1946)
Min Temperature 33 °F 30 °F 15 °F (1948)
Degree Days  
Heating Degree Days 18    
Moisture  
Dew Point 27 °F    
Average Humidity 51    
Maximum Humidity 81    
Minimum Humidity 24    
Precipitation  
Precipitation 0.00 in - - ()
Sea Level Pressure  
Sea Level Pressure 30.15 in    
Wind  
Wind Speed 3 mph (SSE)    
Max Wind Speed 7 mph    
Max Gust Speed -    
Visibility 10 miles    
Events      
Averages and records for this station are not official NWS values.
T = Trace of Precipitation, MM = Missing Value Source: NWS Daily Summary

Daily Weather History Graph

Daily Weather History Graph

Search for Another Location

Airport:

Trip Planner

Search our weather history database for the weather conditions in past years. The results will help you decide how hot, cold, wet, or windy it might be!

Date:

Astronomy

Feb. 04, 2013 Rise Set
Actual Time 7:34 AM MST 6:02 PM MST
Civil Twilight 7:06 AM MST 6:30 PM MST
Nautical Twilight 6:36 AM MST 7:01 PM MST
Astronomical Twilight 6:05 AM MST 7:31 PM MST
Moon 2:12 AM MST (2/4) 12:32 PM MST (2/4)
Length of Visible Light 11h 23m
Length of Day
10h 28m
Last Quarter, 36% of the Moon is Illuminated
Feb 4
Last Quarter
Feb 10
New
Feb 17
First Quarter
Feb 25
Full
Mar 4
Last Quarter

Hourly Weather History & Observations

Time (MST) Temp. Windchill Dew Point Humidity Pressure Visibility Wind Dir Wind Speed Gust Speed Precip Events Conditions
12:15 AM 41.0 °F 36.4 °F 28.4 °F 61% 30.15 in 10.0 mi SSE 6.9 mph - N/A   Clear
12:35 AM 41.0 °F 36.4 °F 30.2 °F 65% 30.15 in 10.0 mi SE 6.9 mph - N/A   Clear
12:55 AM 39.2 °F 35.0 °F 28.4 °F 65% 30.16 in 10.0 mi ENE 5.8 mph - N/A   Clear
1:15 AM 41.0 °F 36.4 °F 28.4 °F 61% 30.16 in 10.0 mi ESE 6.9 mph - N/A   Clear
1:35 AM 39.2 °F 35.0 °F 28.4 °F 65% 30.15 in 10.0 mi ESE 5.8 mph - N/A   Clear
1:55 AM 39.2 °F 35.9 °F 28.4 °F 65% 30.15 in 10.0 mi SSE 4.6 mph - N/A   Clear
2:15 AM 39.2 °F 35.9 °F 28.4 °F 65% 30.17 in 10.0 mi East 4.6 mph - N/A   Clear
3:55 AM 37.4 °F 34.9 °F 26.6 °F 65% 30.17 in 10.0 mi SSW 3.5 mph - N/A   Clear
4:15 AM 37.4 °F 33.8 °F 28.4 °F 70% 30.16 in 10.0 mi SE 4.6 mph - N/A   Clear
4:35 AM 37.4 °F - 28.4 °F 70% 30.17 in 10.0 mi Calm Calm - N/A   Clear
4:55 AM 35.6 °F 30.7 °F 26.6 °F 70% 30.17 in 10.0 mi SE 5.8 mph - N/A   Clear
5:15 AM 35.6 °F 30.7 °F 26.6 °F 70% 30.17 in 10.0 mi SE 5.8 mph - N/A   Clear
5:35 AM 37.4 °F 33.8 °F 26.6 °F 65% 30.17 in 10.0 mi East 4.6 mph - N/A   Clear
5:55 AM 37.4 °F 34.9 °F 26.6 °F 65% 30.17 in 10.0 mi East 3.5 mph - N/A   Clear
6:15 AM 37.4 °F 32.8 °F 26.6 °F 65% 30.17 in 10.0 mi ESE 5.8 mph - N/A   Clear
6:35 AM 35.6 °F 31.7 °F 26.6 °F 70% 30.17 in 10.0 mi SSE 4.6 mph - N/A   Clear
6:55 AM 33.8 °F 30.8 °F 24.8 °F 70% 30.17 in 10.0 mi SSW 3.5 mph - N/A   Clear
7:15 AM 33.8 °F - 26.6 °F 75% 30.17 in 10.0 mi Calm Calm - N/A   Clear
7:35 AM 33.8 °F - 26.6 °F 75% 30.18 in 10.0 mi Calm Calm - N/A   Clear
7:55 AM 33.8 °F - 26.6 °F 75% 30.20 in 10.0 mi Calm Calm - N/A   Clear
8:15 AM 33.8 °F - 26.6 °F 75% 30.20 in 10.0 mi Calm Calm - N/A   Clear
8:35 AM 33.8 °F 29.6 °F 28.4 °F 81% 30.20 in 10.0 mi South 4.6 mph - N/A   Clear
8:55 AM 35.6 °F 32.8 °F 28.4 °F 75% 30.21 in 10.0 mi SSE 3.5 mph - N/A   Clear
9:15 AM 37.4 °F - 28.4 °F 70% 30.21 in 10.0 mi Calm Calm - N/A   Clear
9:35 AM 39.2 °F 37.0 °F 28.4 °F 65% 30.22 in 10.0 mi South 3.5 mph - N/A   Clear
9:55 AM 42.8 °F 41.1 °F 28.4 °F 57% 30.22 in 10.0 mi South 3.5 mph - N/A   Clear
10:15 AM 44.6 °F - 26.6 °F 49% 30.22 in 10.0 mi Calm Calm - N/A   Clear
10:35 AM 42.8 °F 40.1 °F 28.4 °F 57% 30.23 in 10.0 mi NNW 4.6 mph - N/A   Clear
10:55 AM 44.6 °F - 30.2 °F 57% 30.23 in 10.0 mi Calm Calm - N/A   Clear
11:15 AM 46.4 °F - 28.4 °F 50% 30.23 in 10.0 mi Calm Calm - N/A   Clear
11:35 AM 48.2 °F - 28.4 °F 46% 30.22 in 10.0 mi Calm Calm - N/A   Clear
11:55 AM 48.2 °F - 26.6 °F 43% 30.21 in 10.0 mi Calm Calm - N/A   Clear
12:15 PM 48.2 °F - 26.6 °F 43% 30.19 in 10.0 mi SW 3.5 mph - N/A   Clear
12:35 PM 50.0 °F - 26.6 °F 40% 30.18 in 10.0 mi Calm Calm - N/A   Clear
12:55 PM 51.8 °F - 26.6 °F 38% 30.17 in 10.0 mi Calm Calm - N/A   Clear
1:15 PM 53.6 °F - 26.6 °F 35% 30.15 in 10.0 mi Calm Calm - N/A   Clear
1:35 PM 55.4 °F - 28.4 °F 36% 30.13 in 10.0 mi Calm Calm - N/A   Clear
1:55 PM 57.2 °F - 28.4 °F 33% 30.12 in 10.0 mi North 3.5 mph - N/A   Clear
2:15 PM 60.8 °F - 28.4 °F 29% 30.11 in 10.0 mi Calm Calm - N/A   Clear
2:35 PM 57.2 °F - 28.4 °F 33% 30.11 in 10.0 mi North 3.5 mph - N/A   Clear
2:55 PM 60.8 °F - 26.6 °F 27% 30.10 in 10.0 mi Calm Calm - N/A   Clear
3:15 PM 62.6 °F - 24.8 °F 24% 30.10 in 10.0 mi North 4.6 mph - N/A   Clear
3:35 PM 62.6 °F - 26.6 °F 26% 30.09 in 10.0 mi Calm Calm - N/A   Clear
3:55 PM 60.8 °F - 24.8 °F 25% 30.09 in 10.0 mi Calm Calm - N/A   Clear
4:15 PM 60.8 °F - 24.8 °F 25% 30.09 in 10.0 mi Calm Calm - N/A   Clear
4:35 PM 60.8 °F - 24.8 °F 25% 30.09 in 10.0 mi Calm Calm - N/A   Clear
4:55 PM 60.8 °F - 24.8 °F 25% 30.08 in 10.0 mi Calm Calm - N/A   Clear
5:15 PM 60.8 °F - 24.8 °F 25% 30.08 in 10.0 mi Calm Calm - N/A   Clear
5:35 PM 59.0 °F - 24.8 °F 27% 30.08 in 10.0 mi Calm Calm - N/A   Clear
6:15 PM 55.4 °F - 26.6 °F 33% 30.08 in 10.0 mi Calm Calm - N/A   Clear
6:35 PM 53.6 °F - 24.8 °F 33% 30.07 in 10.0 mi Calm Calm - N/A   Clear
6:55 PM 53.6 °F - 26.6 °F 35% 30.08 in 10.0 mi Calm Calm - N/A   Clear
7:15 PM 53.6 °F - 26.6 °F 35% 30.08 in 10.0 mi Calm Calm - N/A   Clear
7:55 PM 48.2 °F - 28.4 °F 46% 30.09 in 10.0 mi SSW 3.5 mph - N/A   Clear
8:15 PM 48.2 °F - 28.4 °F 46% 30.10 in 10.0 mi Calm Calm - N/A   Clear
8:35 PM 46.4 °F 43.5 °F 28.4 °F 50% 30.10 in 10.0 mi South 5.8 mph - N/A   Clear
8:55 PM 46.4 °F - 26.6 °F 46% 30.10 in 10.0 mi Calm Calm - N/A   Clear
9:15 PM 46.4 °F 44.3 °F 26.6 °F 46% 30.10 in 10.0 mi South 4.6 mph - N/A   Clear
9:35 PM 44.6 °F 42.2 °F 26.6 °F 49% 30.10 in 10.0 mi South 4.6 mph - N/A   Clear
9:55 PM 44.6 °F - 26.6 °F 49% 30.12 in 10.0 mi Calm Calm - N/A   Clear
10:15 PM 44.6 °F - 26.6 °F 49% 30.11 in 10.0 mi Calm Calm - N/A   Clear
10:35 PM 44.6 °F - 26.6 °F 49% 30.11 in 10.0 mi Calm Calm - N/A   Clear
10:55 PM 44.6 °F 41.4 °F 26.6 °F 49% 30.11 in 10.0 mi SE 5.8 mph - N/A   Clear
11:15 PM 42.8 °F 41.1 °F 26.6 °F 53% 30.11 in 10.0 mi SW 3.5 mph - N/A   Clear
11:35 PM 42.8 °F - 26.6 °F 53% 30.12 in 10.0 mi Calm Calm - N/A   Clear
11:55 PM 44.6 °F - 26.6 °F 49% 30.12 in 10.0 mi Calm Calm - N/A   Clear